Regional Weather Roundup
Issued by NWS Wakefield, VA

Home | Current Version | Previous Version | Graphics & Text | Print | Product List | Glossary On
Versions: 1 2 3 4 5 6 7 8 9 10 11 12 13 14 15 16 17 18 19 20 21 22 23 24 25 26 27
000
ASUS41 KAKQ 250815
RWRAKQ

REGIONAL WEATHER ROUNDUP
NATIONAL WEATHER SERVICE WAKEFIELD VA
400 AM EDT TUE APR 25 2017

Note: "fair" indicates few or no clouds below 12,000 feet with no
significant weather and/or obstructions to visibility. * = Denotes
station may not report precipitation (e.g., rain,snow,etc.),
thunder or fog.

VAZ042-051-052>054-056-250900-
NORTHERN VIRGINIA

CITY           SKY/WX    TMP DP  RH WIND       PRES   REMARKS
WASH NATIONAL  CLOUDY    55  53  93 NE15      29.90F
DULLES         CLOUDY    52  50  93 NE12      29.90F
FORT BELVOIR   CLOUDY    54  50  87 NE6       29.88F
QUANTICO       CLOUDY    56  55  97 NE17G25   29.87F
FREDERICKSBRG* CLOUDY    54  54 100 N5        29.85F
STAFFORD*      CLOUDY    53  53 100 NE6       29.90F
WARRENTON      CLOUDY    53  49  87 N10       29.87F
CULPEPER*      CLOUDY    52  51  97 N8        29.88F
MANASSAS*        N/A     53  51  93 N9        29.89F
LEESBURG*      CLOUDY    52  52 100 NE8       29.93F
WINCHESTER     CLOUDY    46  46 100 N5        29.92F
FRONT ROYAL*   CLOUDY    48  48 100 N5        29.91F
LURAY*         DRIZZLE   50  50 100 NE9       29.89F
$$

VAZ048-049-060>072-079>083-250900-
CENTRAL AND SOUTH CENTRAL VIRGINIA

CITY           SKY/WX    TMP DP  RH WIND       PRES   REMARKS
RICHMOND       LGT RAIN  57  57 100 NE12      29.78F
CHESTERFIELD*  CLOUDY   N/A N/A N/A NE7       29.78F
PETERSBURG*    LGT RAIN  56  55  97 NE12      29.76F
HANOVER        CLOUDY    56  55  97 VRB6      29.81F FOG
TAPPAHANNOCK*  RAIN      58  58 100 NE10      29.83S
QUINTON*       CLOUDY    57  57 100 NE7       29.78F
CHARLOTTSVILLE CLOUDY    53  51  93 NE14G21   29.85F FOG
GORDONSVILLE*  CLOUDY    51  51 100 NE10G20   29.85F FOG
ORANGE*        CLOUDY    50  50 100 NE8G17    29.86F
LOUISA*        CLOUDY    55  55 100 N10G17    29.82F FOG
BUMPASS*       CLOUDY    53  53 100 NE3       29.83S
FARMVILLE*     CLOUDY    54  54 100 N13G20    29.76F FOG
CREWE*         CLOUDY    55  55 100 N6        29.75F
FORT PICKETT*  CLOUDY   N/A N/A N/A NE9G21    29.74S
CHASE CITY*    CLOUDY    54  53  95 N9G16     29.71F
CLARKSVILLE*   CLOUDY    55  55 100 NE7G20    29.68F
SOUTH HILL*    CLOUDY    57  57 100 N6G16     29.74F
LAWRENCEVILLE* CLOUDY    58  57  97 NE7       29.70F
EMPORIA*       CLOUDY    59  59 100 N9        29.71F
$$

VAZ088>098-250900-
SOUTHEAST VIRGINIA

CITY           SKY/WX    TMP DP  RH WIND       PRES   REMARKS
NORFOLK        LGT RAIN  62  59  90 E15G22    29.71F FOG
VIRGINIA BEACH LGT RAIN  60  58  92 E17G24    29.70F
NORFOLK NAVAL  LGT RAIN  61  58  90 E13       29.73F FOG
WEST POINT*    CLOUDY    59  58  96 NE10      29.79F
SALUDA*        CLOUDY    58  58 100 NE10      29.79F
NEWPORT NEWS   CLOUDY    61  59  93 NE14      29.73F
LANGLEY AFB    CLOUDY    61  61 100 E18       29.72F
FORT EUSTIS    CLOUDY    61  59  94 NE12G17   29.71F
WILLIAMSBURG*  CLOUDY    61  61 100 CALM      29.75F
HR EXEC AP*    CLOUDY    63  57  82 E5        29.69F
FRANKLIN*      LGT RAIN  60  58  95 NE9       29.70F
US460-WAKEFLD  CLOUDY    59  59 100 VRB3      29.72F
$$

VAZ020-022-025-037-045-250900-
WEST CENTRAL AND SOUTHWEST VIRGINIA

CITY           SKY/WX    TMP DP  RH WIND       PRES   REMARKS
STAUNTON*      CLOUDY    47  47  98 N10       29.88F FOG
WAYNESBORO*    CLOUDY    47  47 100 N7        29.86F
HOT SPRINGS VA HVY SNOW  37  36  93 E17G24    29.82S VSB<1/4
LYNCHBURG      LGT RAIN  52  51  97 NE17      29.77F
DANVILLE       CLOUDY    53  53 100 NE12      29.70F
SOUTH BOSTON*  CLOUDY    54  52  95 N13G18    29.71S
MARTINSVILLE   LGT RAIN  52  50  94 NE10      29.73F
ROANOKE        RAIN      50  49  96 NE15G23   29.78F
BLACKSBURG     LGT RAIN  50  48  94 NE8       29.78F
DUBLIN*        RAIN      51  48  89 NE9       29.75F
MARION*        CLOUDY    51  50  95 E10       29.77S
HILLSVILLE*    DRIZZLE   50  50 100 CALM      29.71F
RICHLANDS*     DRIZZLE   51  51  99 CALM      29.75S
WISE*          CLOUDY    50  50 100 CALM      29.77S
ABINGDON*      CLOUDY    55  53  93 E3        29.73F
$$

MDZ021>025-VAZ099-100-250900-
SOUTHERN MARYLAND AND THE DELMARVA PENINSULA

CITY           SKY/WX    TMP DP  RH WIND       PRES   REMARKS
PATUXENT RIVER CLOUDY    55  55 100 NE10      29.84F
BAY BRIDGE APT CLOUDY    54  54 100 E9G17     29.91S
LEONARDTOWN    CLOUDY    55  54  94 NE5       29.86F
DOVER          CLOUDY    55  55 100 NE15      29.92F
GEORGETOWN     FOG       55  54  96 MISG      29.90F VSB 1
EASTON         CLOUDY    56  55  94 E14G20    29.93S FOG
CAMBRIDGE      CLOUDY    55  55 100 NE9G16    29.87F FOG
SALISBURY      FOG       54  54 100 NE13      29.86F VSB 3/4
OCEAN CITY     FOG       54  53  97 NE10      29.86F VSB 3/4
WALLOPS ISLAND FOG       56  56 100 NE15      29.84F VSB 3/4
ACCOMACK*      CLOUDY    59  57  94 NE13G18   29.80F
$$

NCZ012>017-030>032-250900-
NORTH CENTRAL AND EASTERN NORTH CAROLINA

CITY           SKY/WX    TMP DP  RH WIND       PRES   REMARKS
ROANOKE RAPIDS LGT RAIN  61  61 100 NE8       29.65F
RALEIGH        RAIN      60  58  92 SW6       29.62S FOG
ELIZABETH CITY CLOUDY    64  64 100 NE15      29.63F
AHOSKIE*       RAIN      62  61  97 NE10      29.64F
EDENTON*       LGT RAIN  66  64  91 E10G23    29.62F
CURRITUCK*     LGT RAIN  62  62 100 E9        29.66F
KILL DEVIL HLS RAIN      62  62 100 E13G18    29.60F
MANTEO         CLOUDY    63  61  93 E20G25    29.60F
CAPE HATTERAS  LGT RAIN  71  67  87 E29G46    29.48F FOG
TARBORO*       NOT AVBL
GOLDSBORO      LGT RAIN  64  64 100 NE6       29.55F
WASHINGTON     LGT RAIN  65  64  98 NE6       29.58F
GREENVILLE     LGT RAIN  64  64 100 E6        29.63F
NEW BERN       RAIN      63  63 100 N10       29.56F FOG
WILMINGTON     FOG       63  63 100 CALM      29.55F VSB 3/4
$$

VAZ048-250900-
ELSEWHERE

CITY           SKY/WX    TMP DP  RH WIND       PRES   REMARKS
HARRISBURG PA  CLOUDY    53  41  63 E5        29.98F
BALTIMORE      CLOUDY    53  53 100 NE10      29.91F
ANNAPOLIS      CLOUDY    56  53  90 NE8       29.90F
ANDREWS AFB    CLOUDY    52  51  96 NE12      29.88F
PHILADELPHIA   CLOUDY    53  50  89 NE15G24   29.99F
GREENSBORO     CLOUDY    53  52  96 NE13G22   29.65F
ROCKY MOUNT    LGT RAIN  64  64 100 NE10      29.59F
$$

VAZ100-250900-
MARINE

STATION/POSITION TIME  TEMP    WIND        PRES    WAVE   SWELL
                       AIR SEA DIR/SP/G            HT/PER HT/PER
                 (UTC) (F)     (DEG/KT/KT) (MB)    (FT/S) (FT/S)
CAPE MAY NJ      0748   53 55   60/ 10/ 20 1012.7F
LEWES DE         0748   54 54   80/ 23/ 27 1012.2F
15NM E FENWICK I 0650   53 51   50/ 17/ 21 1012.3    6/ 7   2/11
WACHAPREAGUE VA  0742   58 57   40/ 12/ 16 1008.4F
THOMAS POINT MD  0800   55 57   50/ 18/ 20   N/A
GOOSES REEF MD   0800   57 53   90/ 17/ 23 1011.6    2/ 3
COVE POINT MD    0742   56      80/ 16/ 20 1011.4F
SOLOMONS ISLAND  0742   56 60   30/  7/ 10   N/A
BISHOPS HEAD MD  0748   56 58   50/ 14/ 19 1010.6F
PINEY POINT MD   0748           80/ 12/ 18   N/A
POTOMAC MD       0800   58 60   60/ 19/ 21 1009.3    2/ 3
LEWISETTA VA     0742   58 61   70/ 12/ 15 1009.7F
RAPPAHANNOCK LGT 0748           60/ 18/ 19 1008.8F
STINGRAY PT      0750   59      80/ 17/ 21 1009.0F
YORK RVR RNG VA  0742   61      70/ 19/ 23 1006.8F
YORKTOWN VA      0742   61 62   70/ 20/ 23 1006.8F
JAMESTOWN VA     0800   60 67   50/  8/ 12   N/A     0
DOMINION TERM VA 0742   62      10/  2/  6 1006.3F
KIPTOPEKE VA     0748      60   70/ 12/ 19   N/A
CHES BAY BRIDGE  0742   61 61   70/ 20/ 26 1005.9F
CAPE HENRY VA    0742   60      70/ 24/ 27   N/A
WILLOUBY STN VA  0742   62      70/ 18/ 20 1007.1F
S CRANEY ISL VA  0742   62      70/ 17/ 20 1005.6F
CAPE HENRY BUOY  0742      56                N/A     7/ 8   2/11
1ST LANDING BUOY 0800   61 61              1007.2    4/ 4
CAPE CHARLES BUO 0721      57                N/A     6/ 7   2/11
64NM E OF VA BCH 0750   61 54  120/ 14/ 19 1006.3F  12/10  11/10
DUCK PIER NC     0742   61 60   70/ 18/ 20 1003.1F
44100 DUCK FRF   0735      54                N/A    11/10   3/11
44056 DUCK FRF   0730      57                N/A     8/10   3/11
OREGON INLET NC  0742   63 63   80/ 16/ 23 1001.3F
HATTERAS NC      0742   69 67  100/ 26/ 35  997.5F
DIAMOND SHLS NC  0750   73 78  100/ 33/ 39  996.9F  18/11  13/11
CAPE LOOKOUT NC  0800   63     340/ 14/ 14  999.6F
$$




USA.gov is the U.S. government's official web portal to all federal, state and local government web resources and services.